{"data":{"norad_id":40887,"epoch":"2026-09-20T00:10:17.392800Z","epoch_age_seconds":64262,"freshness":"FRESH","line1":"1 40887U 15044A   26263.00714575 -.00000095  00000+0  00000+0 0  9992","line2":"2 40887   4.5072  42.6587 0052900   3.7139  30.1006  1.00272538 40516","mean_motion":1.00272538,"eccentricity":0.00529,"inclination_deg":4.5072,"raan_deg":42.6587,"arg_perigee_deg":3.7139,"mean_anomaly_deg":30.1006,"bstar":0,"rev_number":4051,"period_min":1436.0861196113,"perigee_km":35563.333553879,"apogee_km":36009.434184675,"semimajor_km":42164.520869277,"source":"CELESTRAK","updated_at":"2026-09-20T09:00:35.218802Z"}}